Location: Unspecified
(35.6961°N, 0.0000°E)
Time: 18:35:34
(UTC+00:00)

Altair - Pass Details

Date: 24 May 2019
Orbit: 1501 x 1683 km, 47.2° (Epoch: 16 June)

Event Time Altitude Azimuth Distance (km) Brightness Sun altitude
Rises 11:11:28 0° 301° (WNW) 4,903 10.0 72.1°
Reaches altitude 10° 11:14:52 10° 295° (WNW) 3,894 9.6 72.5°
Maximum altitude 11:23:55 42° 229° (SW) 2,166 9.1 73.4°
Drops below altitude 10° 11:32:40 10° 162° (SSE) 3,749 9.9 74.2°
Sets 11:35:54 0° 155° (SSE) 4,706 10.3 74.4°
